RH
81 78 80 76 75 79 74 77 77 78 78 81 81 82 81 80 79 81 80 78 79 78 76 76 76 74 72 74 73 74 74 72 73 72 74 73 74 73 72 70 72 48 73
70 74 81 77 76 79 77 74 77 78 80 80 81 81 78 76 77 79 78 77 78 77 74 76 75 73 71 70 70 71 70 75 72 75 73 72 73 72 71 71 66 58 72
67 66 68 81 78 77 77 76 77 76 79 82 81 80 76 74 76 76 77 78 77 75 75 75 74 73 72 72 73 70 70 73 72 76 77 54 56 71 70 72 74 73 75
58 64 60 84 79 78 78 77 78 78 78 80 82 80 76 76 75 74 76 76 76 76 74 73 71 71 72 72 74 72 73 70 74 72 54 54 49 72 70 72 74 76 74
63 66 67 83 81 79 79 79 77 80 78 78 79 78 76 75 75 75 75 74 75 74 72 71 70 70 71 71 74 74 72 74 72 62 60 64 54 70 73 70 71 75 68
63 63 73 82 79 80 80 80 77 80 78 80 80 78 76 76 73 72 72 72 73 72 71 70 70 70 72 71 74 74 75 72 70 60 63 66 59 74 73 67 69 71 74
59 61 62 82 80 79 79 79 80 80 78 81 79 76 75 73 71 71 72 73 72 70 69 69 68 69 70 72 77 75 75 72 57 64 60 63 61 77 73 68 68 68 72
55 62 62 78 80 82 78 78 79 81 79 80 78 76 75 73 72 72 72 70 68 67 67 68 69 72 73 74 77 72 73 74 57 60 64 59 78 79 75 72 70 73 74
60 61 68 68 73 80 81 80 80 82 80 78 78 76 76 75 74 72 71 70 68 68 69 70 70 72 72 73 74 70 71 71 62 68 59 64 84 79 77 74 70 73 73
63 64 69 71 72 69 63 79 75 78 77 75 75 77 76 72 70 69 72 74 72 72 71 71 72 70 73 74 74 71 69 69 55 60 57 65 82 78 72 75 72 72 73
68 69 66 63 69 73 70 68 75 74 74 74 72 72 69 57 59 60 73 73 70 68 69 73 71 74 78 74 76 75 71 53 55 54 54 80 80 73 71 70 73 75 71
63 64 67 68 69 65 64 68 70 62 55 59 62 64 60 65 65 64 65 77 70 68 71 78 81 73 62 51 51 61 48 55 53 57 50 85 78 71 72 72 72 73 73
60 59 63 67 71 66 76 74 72 64 63 62 69 66 69 65 63 56 56 54 54 66 52 55 56 53 62 58 57 54 55 58 51 51 58 82 80 73 69 74 72 74 72
62 63 61 65 72 73 82 65 77 66 67 59 62 74 74 63 65 67 59 63 74 58 62 63 56 66 63 63 58 60 58 55 51 52 57 80 82 79 70 70 73 72 72
62 62 64 69 75 75 76 66 64 73 58 57 65 68 64 64 72 70 68 67 68 64 61 64 67 66 66 58 58 61 58 62 61 52 54 72 80 80 74 74 72 72 71
62 63 64 71 75 75 75 80 74 72 68 64 64 63 72 69 71 86 73 81 62 64 60 66 68 65 63 60 57 59 58 56 65 65 52 55 78 78 78 76 74 74 72
64 62 65 69 73 77 79 81 74 68 66 59 60 70 72 74 83 74 88 85 64 67 73 68 68 65 59 57 60 56 56 60 56 66 60 56 55 73 78 76 80 79 75
65 69 66 58 64 71 74 79 68 67 64 63 63 68 73 75 74 79 88 82 72 69 63 64 64 62 61 60 61 58 57 56 62 62 57 58 56 49 63 76 78 80 78
67 71 71 70 69 75 80 81 72 75 72 74 68 68 74 78 77 87 84 80 77 66 82 67 65 70 64 60 58 55 54 55 57 47 58 59 58 56 49 69 81 80 72
64 69 72 69 75 82 89 86 83 84 89 67 68 68 76 79 73 74 76 76 74 80 68 70 79 71 69 66 59 54 56 53 52 51 51 46 46 54 57 65 60 56 79
64 69 73 75 79 73 69 69 72 62 69 67 66 74 76 76 76 81 83 78 76 70 72 77 71 76 61 68 64 50 54 55 51 49 45 40 41 42 49 58 61 60 55
63 70 74 77 79 84 69 76 67 69 67 63 66 75 73 72 76 76 77 72 74 64 77 76 79 66 65 68 65 69 51 53 49 45 42 34 44 38 42 50 58 65 64
63 70 73 78 79 79 77 75 79 75 74 70 70 68 70 72 76 76 75 70 74 68 58 72 71 78 64 71 76 65 55 51 52 47 50 39 45 40 42 48 55 59 60
59 63 71 76 79 77 82 78 82 69 67 63 70 68 70 75 72 72 74 71 74 62 72 68 68 73 76 66 65 68 72 68 55 49 42 41 39 36 46 40 43 49 51
53 59 65 76 80 79 83 81 75 76 65 66 70 79 81 80 74 67 69 70 73 63 74 72 76 78 67 64 62 64 68 62 70 56 47 42 39 40 40 40 41 40 45
50 55 61 76 83 80 82 82 84 81 77 72 74 68 66 68 65 70 65 70 72 71 72 66 73 75 73 71 68 65 56 51 50 53 52 52 52 45 44 40 40 41 42
Wind_Speed
6 8 16 15 13 12 10 12 13 13 12 13 14 13 12 11 10 10 10 8 11 11 10 10 11 11 11 11 9 8 7 7 7 8 10 9 9 8 8 8 6 9 10
10 6 12 15 14 10 12 13 12 13 13 13 12 12 11 9 8 8 8 8 10 10 9 10 10 10 10 9 8 6 4 6 6 8 8 7 5 6 7 7 4 10 10
8 8 11 12 12 11 11 12 13 13 13 12 12 11 9 8 7 6 7 8 9 8 8 9 8 8 8 8 8 6 5 3 2 6 6 4 5 6 8 7 8 8 11
9 7 9 8 9 10 12 12 13 14 14 12 11 10 8 6 5 5 6 7 6 7 8 7 6 7 6 6 7 7 5 4 4 5 3 4 4 7 8 8 10 10 10
8 8 7 7 8 10 11 12 13 13 13 12 10 9 8 7 6 5 5 4 5 7 6 5 5 6 6 6 6 7 5 4 2 1 2 4 2 8 7 7 9 9 5
9 8 8 8 9 11 11 12 13 12 11 10 10 10 9 7 5 4 4 3 5 5 4 4 5 5 6 7 7 7 7 3 2 2 1 5 1 7 6 5 8 8 8
11 9 9 9 10 11 11 12 12 11 11 10 10 9 8 6 4 4 4 3 3 3 3 4 5 6 7 8 8 7 7 5 5 3 2 2 2 3 4 5 10 9 8
11 10 9 10 11 11 12 12 12 11 10 9 9 8 7 6 4 3 3 2 2 3 4 5 6 6 7 7 8 7 6 5 4 5 2 3 5 3 5 5 8 8 8
10 9 8 9 11 12 11 11 11 11 10 9 9 8 8 7 5 3 1 1 3 4 4 5 6 6 5 5 6 6 7 5 4 3 4 1 5 5 6 7 7 7 8
10 9 9 9 10 10 10 10 11 10 9 9 9 8 5 4 3 2 3 2 6 7 7 7 6 6 6 6 7 6 7 5 5 4 3 2 2 6 6 8 8 8 9
9 10 10 10 9 9 8 9 9 9 9 9 7 5 4 2 1 2 5 7 6 6 8 6 5 6 7 5 6 7 6 4 6 4 3 3 5 6 8 8 7 9 9
13 11 9 9 9 9 6 7 7 7 6 6 6 5 3 1 2 5 4 7 4 4 5 7 8 6 3 5 4 4 4 6 5 4 3 3 5 7 8 9 9 8 8
13 10 11 10 9 9 6 4 4 4 4 5 7 6 3 1 2 3 2 2 1 2 2 3 4 4 5 5 5 5 5 5 4 4 4 5 7 7 10 11 11 10 9
13 12 12 11 9 9 6 6 5 5 5 5 6 6 4 3 3 3 1 1 1 2 2 3 3 4 6 5 6 6 6 5 4 5 5 5 8 7 11 11 12 13 11
16 14 13 12 11 10 9 7 6 6 7 7 6 6 5 5 4 3 3 2 1 1 0 2 3 4 5 7 6 6 6 6 7 5 5 6 7 7 9 11 11 13 14
15 15 14 14 12 11 10 9 7 6 7 7 6 7 8 6 6 4 4 2 2 1 1 2 3 4 5 6 6 6 7 6 5 7 5 5 5 6 7 11 10 12 15
14 15 16 15 14 13 13 10 8 8 7 7 8 9 9 8 8 6 4 3 2 2 2 3 3 2 3 3 5 6 6 6 5 4 4 5 4 3 5 6 10 11 13
14 15 15 13 14 14 12 10 8 8 8 7 8 7 10 8 8 5 4 3 3 2 2 3 3 4 3 3 4 5 6 5 6 5 4 4 4 6 3 4 5 10 12
16 15 15 15 14 14 12 9 10 8 7 7 7 6 7 6 5 6 4 3 3 3 3 2 2 3 3 4 5 5 4 4 3 3 4 3 3 4 5 1 6 6 10
15 15 15 13 15 14 9 8 6 6 4 4 5 5 5 6 6 5 3 3 4 4 2 2 3 3 4 4 6 5 3 2 4 4 5 5 6 6 5 5 3 3 5
15 15 15 15 15 10 8 8 7 8 6 6 6 7 7 4 5 5 3 4 4 4 2 3 3 4 2 2 4 4 1 3 6 3 4 5 6 6 6 6 4 4 2
17 17 16 16 14 12 9 7 6 6 6 6 6 6 5 6 6 4 4 5 5 3 4 4 4 3 2 1 3 2 2 4 1 4 4 6 7 6 7 6 7 7 6
18 17 16 16 15 13 12 7 4 4 3 5 5 5 7 8 6 6 6 4 4 4 3 3 3 4 2 2 1 3 2 1 4 1 2 4 7 7 7 6 8 7 8
18 17 16 16 15 13 13 11 12 9 9 7 6 6 6 7 8 7 5 5 4 3 2 1 2 2 2 2 2 2 1 3 3 2 0 2 3 5 6 5 5 6 7
18 16 16 16 15 14 14 13 11 12 9 6 5 5 6 6 8 7 7 6 4 4 3 3 3 2 2 2 2 2 2 2 2 3 5 4 3 2 4 5 4 3 5
17 17 16 16 16 15 16 16 15 13 12 8 6 5 5 6 7 7 7 6 5 4 4 4 4 4 3 4 4 3 3 2 2 3 5 5 7 4 5 4 5 4 5
Wind_Direction
116 127 144 145 144 128 127 128 123 122 126 125 126 125 118 117 113 103 103 104 93 85 80 73 69 64 62 60 53 62 94 105 113 112 108 99 84 77 93 100 148 122 127
138 125 145 146 148 134 127 134 122 122 128 133 134 127 126 125 110 95 105 97 88 83 79 72 66 60 54 53 46 41 61 125 120 120 111 107 88 102 90 102 131 92 138
141 130 144 137 145 141 138 143 132 132 134 135 135 132 134 130 116 106 99 89 87 91 84 77 66 58 45 34 29 26 9 28 137 114 109 86 62 100 98 94 119 110 103
147 151 149 138 148 144 146 149 138 139 141 134 135 135 133 129 135 116 90 83 85 81 70 62 54 47 33 29 17 12 355 344 1 81 109 76 57 93 105 103 97 117 112
158 161 157 150 146 139 143 148 147 142 130 128 133 136 142 144 140 115 93 86 85 77 69 60 49 36 23 14 6 350 338 355 6 11 86 77 11 103 116 119 124 125 134
155 163 160 163 150 139 147 150 152 142 132 135 145 147 148 141 144 122 115 107 89 79 65 46 36 11 358 353 352 345 327 334 327 20 82 101 76 103 129 136 128 123 129
149 158 159 159 146 148 150 145 149 150 148 146 142 150 148 161 153 147 136 105 82 59 43 26 9 353 341 341 344 342 337 334 315 349 108 204 122 146 149 144 147 145 158
148 152 155 157 155 148 149 148 153 148 148 146 149 153 163 175 174 156 106 69 21 8 353 357 345 341 340 331 338 337 340 344 335 334 277 173 115 179 166 182 163 171 163
146 152 157 160 155 154 156 150 151 153 157 159 160 161 176 183 166 175 196 325 341 331 320 336 339 336 336 334 334 338 333 350 337 332 331 280 150 183 177 184 171 160 178
157 162 162 159 152 157 154 160 162 165 166 168 164 166 167 163 184 210 307 355 334 329 335 332 353 4 10 29 13 360 355 338 3 339 341 47 209 193 186 185 189 181 171
172 170 168 159 155 156 161 167 167 166 172 171 167 174 188 233 262 303 10 338 313 323 333 349 24 35 35 45 31 10 341 345 329 340 325 111 240 230 207 193 189 200 190
176 177 175 168 169 170 172 172 171 180 183 196 200 212 223 259 353 327 311 336 294 309 355 29 36 44 28 12 9 344 340 338 303 318 314 335 303 203 208 197 203 199 213
179 178 181 177 181 178 169 184 190 193 200 206 214 224 213 274 320 322 329 1 29 12 13 29 15 30 22 1 347 340 339 321 311 306 335 295 298 235 211 205 200 200 219
188 191 190 193 190 192 190 195 198 206 204 210 212 211 216 231 260 272 301 323 2 8 28 14 12 9 356 347 338 329 321 323 319 310 307 299 295 234 220 215 209 199 215
193 194 192 194 198 195 205 206 211 216 213 216 217 215 221 231 250 258 261 234 286 178 51 344 352 345 337 332 337 334 327 323 317 308 305 332 299 293 230 222 215 217 211
197 197 196 202 204 201 210 212 218 217 220 221 220 224 224 233 242 244 241 246 246 237 278 302 321 327 329 327 332 337 325 317 314 310 306 306 319 310 266 233 237 229 224
202 202 203 203 203 207 211 213 221 217 220 225 226 225 223 224 235 239 237 231 247 257 268 279 298 297 302 322 325 323 319 317 305 303 306 315 311 270 295 282 233 229 229
202 204 206 205 204 210 214 212 218 224 222 227 233 230 229 239 240 226 236 220 211 225 265 297 312 308 320 321 323 320 324 316 319 293 287 298 304 298 240 226 285 229 227
202 204 206 206 207 207 215 222 214 218 223 234 241 245 247 250 235 232 235 225 208 225 234 281 273 292 307 321 314 315 324 326 334 358 11 17 14 308 297 216 267 275 247
208 209 210 208 211 206 208 211 213 220 229 224 229 227 223 228 206 238 249 215 211 230 214 224 250 247 299 315 309 318 342 80 38 66 59 52 27 19 3 332 302 268 296
213 212 211 209 213 210 204 208 217 216 216 221 229 230 225 230 217 217 202 167 192 215 216 207 234 260 262 294 301 339 99 167 52 48 53 37 25 22 21 30 13 0 345
214 216 214 216 213 215 208 209 216 206 219 226 223 221 218 214 214 199 176 176 184 196 208 216 219 246 278 311 339 284 339 158 100 70 63 43 33 30 27 32 24 20 12
213 213 215 216 216 217 217 206 182 193 205 209 221 218 214 216 193 193 177 182 186 218 213 192 197 216 267 151 331 324 263 10 336 113 49 34 28 37 33 33 38 43 34
212 211 212 217 219 212 202 204 209 217 225 227 225 220 208 198 188 186 185 185 193 211 197 166 177 201 227 271 195 183 330 341 335 291 229 33 28 40 39 38 38 48 33
209 207 208 212 217 213 204 209 207 220 226 220 205 201 214 192 194 192 190 183 193 213 193 204 188 216 210 280 245 216 227 207 210 275 308 322 319 26 21 8 9 21 31
209 207 208 207 213 208 209 208 211 215 218 214 204 209 214 199 190 198 192 193 203 209 212 208 204 205 235 242 238 237 257 279 280 275 291 312 318 326 339 356 349 341 350